Petersburg, AK

2:29 AM AKDT on June 23, 2017 (GMT -0800)
Johnson Petersburg

Weather History for PAPG - August, 2012

Change the Weather History Date:

Saturday, August 25, 2012

  Actual Average Record
Temperature  
Mean Temperature 52 °F -  
Max Temperature 55 °F 57 °F 76 °F (1987)
Min Temperature 48 °F 47 °F 38 °F (1985)
Degree Days  
Heating Degree Days 14    
Growing Degree Days 2 (Base 50)    
Moisture  
Dew Point 47 °F    
Average Humidity 86    
Maximum Humidity 93    
Minimum Humidity 77    
Precipitation  
Precipitation 0.00 in - - ()
Sea Level Pressure  
Sea Level Pressure 30.00 in    
Wind  
Wind Speed 2 mph (ENE)    
Max Wind Speed 7 mph    
Max Gust Speed -    
Visibility 10 miles    
Events      
Averages and records for this station are not official NWS values.
T = Trace of Precipitation, MM = Missing Value Source: NWS Daily Summary

Daily Weather History Graph

Daily Weather History Graph

Search for Another Location

Airport or City:

Trip Planner

Search our weather history database for the weather conditions in past years. The results will help you decide how hot, cold, wet, or windy it might be!

Date:

Astronomy

Aug. 25, 2012 Rise Set
Actual Time 5:41 AM AKDT 8:04 PM AKDT
Civil Twilight 4:59 AM AKDT 8:45 PM AKDT
Nautical Twilight 4:05 AM AKDT 9:39 PM AKDT
Astronomical Twilight 2:57 AM AKDT 10:46 PM AKDT
Moon 4:26 PM AKDT (8/25) 11:50 PM AKDT (8/25)
Length of Visible Light 15h 46m
Length of Day
14h 22m
Waxing Gibbous, 64% of the Moon is Illuminated
Aug 25
Waxing Gibbous
Aug 31
Full
Sep 8
Last Quarter
Sep 15
New
Sep 22
First Quarter

Hourly Weather History & Observations

Time (AKDT) Temp. Dew Point Humidity Pressure Visibility Wind Dir Wind Speed Gust Speed Precip Events Conditions
12:16 AM 51.8 °F 46.4 °F 82% 30.06 in 10.0 mi Calm Calm - N/A   Overcast
12:36 AM 51.8 °F 46.4 °F 82% 30.07 in 10.0 mi Calm Calm - N/A   Overcast
12:56 AM 51.8 °F 46.4 °F 82% 30.07 in 10.0 mi Calm Calm - N/A   Overcast
1:16 AM 50.0 °F 46.4 °F 87% 30.06 in 10.0 mi North 3.5 mph - N/A   Overcast
1:36 AM 50.0 °F 46.4 °F 87% 30.06 in 10.0 mi Calm Calm - N/A   Overcast
1:56 AM 50.0 °F 46.4 °F 87% 30.06 in 10.0 mi Calm Calm - N/A   Overcast
2:16 AM 50.0 °F 46.4 °F 87% 30.05 in 10.0 mi Calm Calm - N/A   Overcast
2:36 AM 50.0 °F 46.4 °F 87% 30.05 in 10.0 mi Calm Calm - N/A   Overcast
2:56 AM 50.0 °F 46.4 °F 87% 30.05 in 10.0 mi East 3.5 mph - N/A   Overcast
3:16 AM 50.0 °F 46.4 °F 87% 30.05 in 10.0 mi Calm Calm - N/A   Overcast
3:36 AM 50.0 °F 46.4 °F 87% 30.05 in 10.0 mi Calm Calm - N/A   Overcast
3:56 AM 50.0 °F 46.4 °F 87% 30.05 in 10.0 mi Calm Calm - N/A   Overcast
4:16 AM 50.0 °F 46.4 °F 87% 30.04 in 10.0 mi WSW 3.5 mph - N/A   Overcast
4:36 AM 50.0 °F 46.4 °F 87% 30.04 in 5.0 mi SSW 3.5 mph - N/A   Overcast
4:56 AM 50.0 °F 46.4 °F 87% 30.03 in 10.0 mi Calm Calm - N/A   Overcast
5:16 AM 50.0 °F 46.4 °F 87% 30.03 in 10.0 mi Calm Calm - N/A   Overcast
5:36 AM 48.2 °F 46.4 °F 93% 30.02 in 10.0 mi Calm Calm - N/A   Overcast
5:56 AM 48.2 °F 46.4 °F 93% 30.02 in 10.0 mi Calm Calm - N/A   Overcast
6:16 AM 48.2 °F 46.4 °F 93% 30.02 in 10.0 mi Calm Calm - N/A   Overcast
6:36 AM 48.2 °F 46.4 °F 93% 30.02 in 10.0 mi Calm Calm - N/A   Overcast
6:56 AM 48.2 °F 46.4 °F 93% 30.02 in 10.0 mi Calm Calm - N/A   Overcast
7:16 AM 50.0 °F 46.4 °F 87% 30.02 in 10.0 mi Calm Calm - N/A   Overcast
7:36 AM 48.2 °F 46.4 °F 93% 30.02 in 10.0 mi Calm Calm - N/A   Overcast
7:56 AM 48.2 °F 46.4 °F 93% 30.02 in 10.0 mi Calm Calm - N/A   Overcast
8:16 AM 50.0 °F 46.4 °F 87% 30.02 in 10.0 mi Calm Calm - N/A   Overcast
8:36 AM 51.8 °F 48.2 °F 88% 30.02 in 10.0 mi Calm Calm - N/A   Overcast
8:56 AM 51.8 °F 48.2 °F 88% 30.02 in 10.0 mi ENE 3.5 mph - N/A   Overcast
9:16 AM 51.8 °F 48.2 °F 88% 30.01 in 10.0 mi ENE 3.5 mph - N/A   Overcast
9:36 AM 51.8 °F 46.4 °F 82% 30.01 in 10.0 mi ENE 3.5 mph - N/A   Overcast
9:56 AM 51.8 °F 48.2 °F 88% 30.01 in 10.0 mi ENE 4.6 mph - N/A   Overcast
10:16 AM 51.8 °F 48.2 °F 88% 30.00 in 10.0 mi Calm Calm - N/A   Overcast
10:36 AM 53.6 °F 48.2 °F 82% 30.00 in 10.0 mi Calm Calm - N/A   Overcast
10:56 AM 53.6 °F 48.2 °F 82% 30.00 in 10.0 mi ENE 3.5 mph - N/A   Overcast
11:16 AM 53.6 °F 48.2 °F 82% 30.00 in 10.0 mi ENE 3.5 mph - N/A   Overcast
11:36 AM 53.6 °F 48.2 °F 82% 30.00 in 10.0 mi ENE 3.5 mph - N/A   Overcast
11:56 AM 53.6 °F 48.2 °F 82% 30.00 in 10.0 mi ENE 4.6 mph - N/A   Overcast
12:16 PM 53.6 °F 48.2 °F 82% 29.99 in 10.0 mi NE 3.5 mph - N/A   Overcast
12:36 PM 53.6 °F 48.2 °F 82% 30.00 in 10.0 mi NE 3.5 mph - N/A   Overcast
12:56 PM 55.4 °F 48.2 °F 77% 29.99 in 10.0 mi NE 5.8 mph - N/A   Mostly Cloudy
1:16 PM 53.6 °F 46.4 °F 77% 30.00 in 10.0 mi NE 5.8 mph - N/A   Mostly Cloudy
1:36 PM 53.6 °F 46.4 °F 77% 30.00 in 10.0 mi NNE 5.8 mph - N/A   Mostly Cloudy
1:56 PM 53.6 °F 46.4 °F 77% 30.00 in 10.0 mi East 4.6 mph - N/A   Overcast
2:16 PM 53.6 °F 46.4 °F 77% 30.00 in 10.0 mi East 5.8 mph - N/A   Overcast
2:36 PM 51.8 °F 46.4 °F 82% 30.00 in 10.0 mi ENE 4.6 mph - N/A   Overcast
2:56 PM 53.6 °F 48.2 °F 82% 29.99 in 10.0 mi ENE 5.8 mph - N/A   Overcast
3:16 PM 51.8 °F 48.2 °F 88% 29.99 in 10.0 mi ENE 6.9 mph - N/A   Overcast
3:36 PM 53.6 °F 48.2 °F 82% 29.99 in 10.0 mi NE 6.9 mph - N/A   Overcast
3:56 PM 53.6 °F 48.2 °F 82% 29.98 in 10.0 mi East 5.8 mph - N/A   Overcast
4:16 PM 53.6 °F 48.2 °F 82% 29.98 in 10.0 mi ENE 5.8 mph - N/A   Overcast
4:36 PM 51.8 °F 48.2 °F 88% 29.97 in 10.0 mi ENE 5.8 mph - N/A   Overcast
4:56 PM 51.8 °F 48.2 °F 88% 29.97 in 10.0 mi ENE 3.5 mph - N/A   Overcast
5:16 PM 51.8 °F 48.2 °F 88% 29.97 in 10.0 mi ENE 3.5 mph - N/A   Overcast
5:36 PM 51.8 °F 48.2 °F 88% 29.96 in 10.0 mi East 4.6 mph - N/A   Overcast
5:56 PM 51.8 °F 48.2 °F 88% 29.96 in 10.0 mi East 3.5 mph - N/A   Overcast
6:16 PM 51.8 °F 48.2 °F 88% 29.96 in 10.0 mi East 5.8 mph - N/A   Overcast
6:36 PM 51.8 °F 48.2 °F 88% 29.96 in 10.0 mi East 4.6 mph - N/A   Overcast
6:56 PM 51.8 °F 48.2 °F 88% 29.95 in 10.0 mi East 5.8 mph - N/A   Mostly Cloudy
7:16 PM 51.8 °F 48.2 °F 88% 29.95 in 10.0 mi East 4.6 mph - N/A   Mostly Cloudy
7:36 PM 50.0 °F 46.4 °F 87% 29.95 in 10.0 mi East 3.5 mph - N/A   Mostly Cloudy
7:56 PM 50.0 °F 46.4 °F 87% 29.95 in 10.0 mi Calm Calm - N/A   Mostly Cloudy
8:36 PM 50.0 °F 46.4 °F 87% 29.95 in 10.0 mi East 5.8 mph - N/A   Mostly Cloudy
8:56 PM 50.0 °F 46.4 °F 87% 29.95 in 10.0 mi East 3.5 mph - N/A   Overcast
9:16 PM 50.0 °F 46.4 °F 87% 29.94 in 10.0 mi East 4.6 mph - N/A   Overcast
9:56 PM 50.0 °F 46.4 °F 87% 29.94 in 10.0 mi ENE 3.5 mph - N/A   Overcast
10:16 PM 50.0 °F 46.4 °F 87% 29.94 in 10.0 mi East 3.5 mph - N/A   Overcast
10:36 PM 50.0 °F 46.4 °F 87% 29.94 in 10.0 mi East 3.5 mph - N/A   Overcast
10:56 PM 48.2 °F 46.4 °F 93% 29.94 in 10.0 mi ENE 3.5 mph - N/A   Overcast
11:16 PM 50.0 °F 46.4 °F 87% 29.94 in 10.0 mi Calm Calm - N/A   Overcast
11:36 PM 48.2 °F 46.4 °F 93% 29.94 in 10.0 mi East 4.6 mph - N/A   Overcast
11:56 PM 48.2 °F 46.4 °F 93% 29.94 in 10.0 mi East 3.5 mph - N/A   Overcast